Location: Antoign�
(47.0844°N, 0.1131°W)
Time: 22:57:34
(UTC+00:00)

Lacrosse 4 Rocket - Pass Details

Date: 03 March 2021
Orbit: 537 x 620 km, 68.0° (Epoch: 14 April)

Event Time Altitude Azimuth Distance (km) Brightness Sun altitude
Rises 19:10:05 0° 174° (S) 2,815 4.8 -14.6°
Reaches altitude 10° 19:12:39 10° 160° (SSE) 1,933 3.8 -15.0°
Enters shadow 19:14:32 19° 137° (SE) 1,461 3.0 -15.3°
